Location: Cheching
(60.0667°N, 164.2167°W)
Time: 20:16:27
(UTC+00:00)

NOAA 15 - Pass Details

Date: 27 January 2021
Orbit: 798 x 812 km, 98.7° (Epoch: 07 March)

Event Time Altitude Azimuth Distance (km) Brightness Sun altitude
Rises 06:30:43 0° 197° (SSW) 3,307 7.9 -25.9°
Reaches altitude 10° 06:33:20 10° 208° (SSW) 2,383 7.2 -26.3°
Maximum altitude 06:37:54 29° 268° (W) 1,439 6.5 -26.8°
Drops below altitude 10° 06:42:31 10° 328° (NNW) 2,406 7.6 -27.4°
Sets 06:45:11 0° 340° (NNW) 3,344 8.2 -27.7°
